Weather History for TJSJ - June, 2012

Change the Weather History Date:

Wednesday, June 27, 2012

  Actual Average Record
Temperature  
Mean Temperature 87 °F 84 °F  
Max Temperature 93 °F 89 °F 96 °F (1988)
Min Temperature 80 °F 78 °F 71 °F (1949)
Degree Days  
Heating Degree Days 0 0  
Month to date heating degree days 0 0  
Since 1 June heating degree days 0 0  
Since 1 July heating degree days 0 0  
Cooling Degree Days 22 18  
Month to date cooling degree days 565 486  
Year to date cooling degree days 2746 2651  
Since 1 June cooling degree days 565 486  
Growing Degree Days 36 (Base 50)    
Moisture  
Dew Point 75 °F    
Average Humidity 69    
Maximum Humidity 85    
Minimum Humidity 52    
Precipitation  
Precipitation 0.00 in 0.14 in 1.76 in (1932)
Month to date precipitation 0.15 4.00  
Year to date precipitation 25.70 22.68  
Sea Level Pressure  
Sea Level Pressure 30.09 in    
Wind  
Wind Speed 11 mph (East)    
Max Wind Speed 24 mph    
Max Gust Speed 30 mph    
Visibility 9 miles    
Events      
T = Trace of Precipitation, MM = Missing Value Source: NWS Daily Summary

Daily Weather History Graph

Daily Weather History Graph

Search for Another Location

Airport or City:

Trip Planner

Search our weather history database for the weather conditions in past years. The results will help you decide how hot, cold, wet, or windy it might be!

Date:

Astronomy

Jun. 27, 2012 Rise Set
Actual Time 5:50 AM AST 7:04 PM AST
Civil Twilight 5:26 AM AST 7:28 PM AST
Nautical Twilight 4:57 AM AST 7:57 PM AST
Astronomical Twilight 4:27 AM AST 8:26 PM AST
Moon 12:56 PM AST (6/27) 12:08 AM AST (6/27)
Length of Visible Light 14h 02m
Length of Day
13h 13m
First Quarter, 56% of the Moon is Illuminated
Jun 27
First Quarter
Jul 3
Full
Jul 10
Last Quarter
Jul 19
New
Jul 26
First Quarter

Hourly Weather History & Observations

Time (AST) Temp. Heat Index Dew Point Humidity Pressure Visibility Wind Dir Wind Speed Gust Speed Precip Events Conditions
12:56 AM 82.0 °F 87.9 °F 73.9 °F 76% 30.06 in 10.0 mi Calm Calm - N/A   Partly Cloudy
1:56 AM 80.1 °F 84.5 °F 73.9 °F 81% 30.04 in 10.0 mi East 3.5 mph - N/A   Partly Cloudy
2:56 AM 81.0 °F 86.2 °F 73.9 °F 79% 30.05 in 10.0 mi Calm Calm - N/A   Scattered Clouds
3:56 AM 81.0 °F 86.7 °F 75.0 °F 82% 30.05 in 10.0 mi ESE 4.6 mph - N/A   Partly Cloudy
4:56 AM 81.0 °F 86.7 °F 75.0 °F 82% 30.06 in 10.0 mi East 6.9 mph - N/A   Partly Cloudy
5:56 AM 80.1 °F 85.1 °F 75.0 °F 85% 30.07 in 9.0 mi Calm Calm - N/A   Partly Cloudy
6:56 AM 82.0 °F 88.6 °F 75.0 °F 79% 30.09 in 8.0 mi ESE 4.6 mph - N/A   Partly Cloudy
7:56 AM 84.0 °F 92.6 °F 75.9 °F 76% 30.10 in 8.0 mi East 11.5 mph - N/A   Partly Cloudy
8:56 AM 87.1 °F 96.3 °F 75.0 °F 67% 30.11 in 8.0 mi East 13.8 mph - N/A   Partly Cloudy
9:56 AM 89.1 °F 98.0 °F 73.9 °F 61% 30.11 in 8.0 mi ENE 19.6 mph 23.0 mph N/A   Partly Cloudy
10:56 AM 91.0 °F 100.4 °F 73.9 °F 57% 30.11 in 8.0 mi ENE 19.6 mph 24.2 mph N/A   Partly Cloudy
11:56 AM 91.9 °F 100.7 °F 73.0 °F 54% 30.10 in 9.0 mi ENE 13.8 mph 21.9 mph N/A   Partly Cloudy
12:56 PM 93.0 °F 101.9 °F 73.0 °F 52% 30.09 in 9.0 mi East 17.3 mph 21.9 mph N/A   Partly Cloudy
1:56 PM 91.0 °F 100.4 °F 73.9 °F 57% 30.08 in 9.0 mi ENE 20.7 mph 29.9 mph N/A   Scattered Clouds
2:56 PM 91.0 °F 100.4 °F 73.9 °F 57% 30.07 in 9.0 mi ENE 19.6 mph 26.5 mph N/A   Scattered Clouds
3:56 PM 91.0 °F 98.2 °F 72.0 °F 53% 30.07 in 9.0 mi East 17.3 mph - N/A   Scattered Clouds
4:56 PM 89.1 °F 97.0 °F 73.0 °F 59% 30.06 in 9.0 mi ENE 17.3 mph - N/A   Partly Cloudy
5:56 PM 86.0 °F 93.8 °F 73.9 °F 67% 30.08 in 9.0 mi ENE 17.3 mph - N/A   Partly Cloudy
6:56 PM 84.0 °F 92.6 °F 75.9 °F 76% 30.09 in 10.0 mi East 15.0 mph - N/A   Scattered Clouds
7:56 PM 82.9 °F 91.8 °F 77.0 °F 82% 30.10 in 10.0 mi East 9.2 mph - N/A   Scattered Clouds
8:56 PM 82.9 °F 91.8 °F 77.0 °F 82% 30.11 in 10.0 mi East 10.4 mph - N/A   Scattered Clouds
9:56 PM 82.0 °F 90.2 °F 77.0 °F 85% 30.12 in 10.0 mi East 10.4 mph - N/A   Scattered Clouds
10:56 PM 82.0 °F 90.2 °F 77.0 °F 85% 30.12 in 10.0 mi East 9.2 mph - N/A   Scattered Clouds
11:56 PM 82.0 °F 88.6 °F 75.0 °F 79% 30.12 in 10.0 mi East 6.9 mph - N/A   Scattered Clouds